Location: Centerville
(32.8776°N, 96.6203°W)
Time: 05:38:56
(UTC+00:00)

Delta 2 Rocket - Pass Details

Date: 17 June 2021
Orbit: 416 x 801 km, 35.6° (Epoch: 29 July)

Event Time Altitude Azimuth Distance (km) Brightness Sun altitude
Exits shadow 09:36:37 42° 197° (SSW) 722 3.5 -17.9°
Maximum altitude 09:37:23 50° 158° (SSE) 634 3.4 -17.8°
Drops below altitude 10° 09:40:55 10° 82° (E) 1,601 6.5 -17.3°
Sets 09:43:01 0° 77° (ENE) 2,432 7.7 -16.9°
